Change the Weather History Date:

Saturday, June 15, 2013

  Actual Average Record
Temperature  
Mean Temperature 70 °F -  
Max Temperature 80 °F 81 °F 95 °F (2005)
Min Temperature 60 °F 65 °F 55 °F (1955)
Cooling Degree Days 5    
Growing Degree Days 20 (Base 50)    
Moisture  
Dew Point 59 °F    
Average Humidity 67    
Maximum Humidity 88    
Minimum Humidity 37    
Precipitation  
Precipitation 0.00 in - - ()
Sea Level Pressure  
Sea Level Pressure 30.09 in    
Wind  
Wind Speed 4 mph (SSE)    
Max Wind Speed 16 mph    
Max Gust Speed 17 mph    
Visibility 10 miles    
Events      
Averages and records for this station are not official NWS values.
T = Trace of Precipitation, MM = Missing Value Source: NWS Daily Summary

Daily Weather History Graph

Daily Weather History Graph

Search for Another Location

Airport or City:

Trip Planner

Search our weather history database for the weather conditions in past years. The results will help you decide how hot, cold, wet, or windy it might be!

Date:

Astronomy

Jun. 15, 2013 Rise Set
Actual Time 6:04 AM EDT 8:27 PM EDT
Civil Twilight 5:35 AM EDT 8:56 PM EDT
Nautical Twilight 5:00 AM EDT 9:32 PM EDT
Astronomical Twilight 4:21 AM EDT 10:11 PM EDT
Moon 12:20 PM EDT (6/15) 12:17 AM EDT (6/15)
Length of Visible Light 15h 20m
Length of Day
14h 22m
Waxing Crescent, 39% of the Moon is Illuminated
Jun 15
Waxing Crescent
Jun 16
First Quarter
Jun 23
Full
Jun 30
Last Quarter
Jul 8
New

Hourly Weather History & Observations

Time (EDT) Temp. Heat Index Dew Point Humidity Pressure Visibility Wind Dir Wind Speed Gust Speed Precip Events Conditions
12:15 AM 69.8 °F - 60.8 °F 73% 30.02 in 10.0 mi Calm Calm - N/A   Clear
12:35 AM 66.2 °F - 60.8 °F 83% 30.03 in 10.0 mi ENE 4.6 mph - N/A   Clear
12:55 AM 68.0 °F - 59.0 °F 73% 30.03 in 10.0 mi NNE 3.5 mph - N/A   Clear
1:15 AM 66.2 °F - 57.2 °F 73% 30.04 in 10.0 mi North 3.5 mph - N/A   Clear
1:35 AM 66.2 °F - 59.0 °F 78% 30.05 in 10.0 mi Calm Calm - N/A   Clear
1:55 AM 66.2 °F - 57.2 °F 73% 30.05 in 10.0 mi Calm Calm - N/A   Clear
2:15 AM 66.2 °F - 59.0 °F 78% 30.05 in 10.0 mi Calm Calm - N/A   Clear
2:35 AM 66.2 °F - 60.8 °F 83% 30.05 in 10.0 mi Calm Calm - N/A   Clear
2:55 AM 66.2 °F - 60.8 °F 83% 30.05 in 10.0 mi Calm Calm - N/A   Clear
3:15 AM 66.2 °F - 60.8 °F 83% 30.05 in 10.0 mi North 4.6 mph - N/A   Clear
3:35 AM 64.4 °F - 60.8 °F 88% 30.05 in 10.0 mi North 4.6 mph - N/A   Clear
3:55 AM 62.6 °F - 57.2 °F 82% 30.05 in 10.0 mi NW 3.5 mph - N/A   Clear
4:15 AM 62.6 °F - 57.2 °F 82% 30.05 in 10.0 mi Calm Calm - N/A   Clear
4:35 AM 62.6 °F - 57.2 °F 82% 30.05 in 10.0 mi SSW 3.5 mph - N/A   Clear
4:55 AM 62.6 °F - 57.2 °F 82% 30.05 in 10.0 mi Calm Calm - N/A   Clear
5:15 AM 62.6 °F - 57.2 °F 82% 30.05 in 10.0 mi Calm Calm - N/A   Clear
5:35 AM 60.8 °F - 57.2 °F 88% 30.05 in 10.0 mi Calm Calm - N/A   Clear
5:55 AM 62.6 °F - 57.2 °F 82% 30.05 in 10.0 mi Calm Calm - N/A   Clear
6:50 AM 62.6 °F - 59.0 °F 88% 30.07 in 10.0 mi WNW 6.9 mph - N/A   Clear
7:55 AM 71.6 °F - 64.4 °F 78% 30.10 in 10.0 mi North 6.9 mph - N/A   Clear
8:50 AM 77.0 °F - 62.6 °F 61% 30.12 in 10.0 mi ESE 6.9 mph - N/A   Clear
9:45 AM 78.8 °F - 60.8 °F 54% 30.13 in 10.0 mi East 6.9 mph - N/A   Clear
11:45 AM 80.6 °F 80.8 °F 57.2 °F 45% 30.15 in 10.0 mi ESE 11.5 mph - N/A   Clear
12:48 PM 80.6 °F 80.5 °F 55.4 °F 42% 30.14 in 10.0 mi SSE 12.7 mph - N/A   Partly Cloudy
1:48 PM 80.6 °F 80.5 °F 55.4 °F 42% 30.13 in 10.0 mi SSE 15.0 mph - N/A   Partly Cloudy
2:50 PM 80.6 °F - 51.8 °F 37% 30.13 in 10.0 mi SSE 13.8 mph - N/A   Partly Cloudy
3:45 PM 80.6 °F - 51.8 °F 37% 30.12 in 10.0 mi South 16.1 mph - N/A   Clear
4:47 PM 80.6 °F 80.5 °F 55.4 °F 42% 30.11 in 10.0 mi South 13.8 mph - N/A   Clear
5:45 PM 80.6 °F 80.5 °F 55.4 °F 42% 30.11 in 10.0 mi South 11.5 mph - N/A   Partly Cloudy
6:50 PM 78.8 °F - 57.2 °F 47% 30.11 in 10.0 mi South 10.4 mph - N/A   Clear
7:45 PM 77.0 °F - 57.2 °F 50% 30.12 in 10.0 mi South 11.5 mph 17.3 mph N/A   Clear
8:48 PM 75.2 °F - 59.0 °F 57% 30.11 in 10.0 mi South 9.2 mph - N/A   Clear
9:45 PM 75.2 °F - 60.8 °F 61% 30.12 in 10.0 mi South 13.8 mph - N/A   Clear
10:55 PM 75.2 °F - 62.6 °F 65% 30.14 in 10.0 mi South 10.4 mph - N/A   Clear
11:15 PM 75.2 °F - 62.6 °F 65% 30.14 in 10.0 mi South 9.2 mph - N/A   Clear
11:35 PM 75.2 °F - 62.6 °F 65% 30.14 in 10.0 mi South 6.9 mph - N/A   Clear
11:55 PM 75.2 °F - 60.8 °F 61% 30.14 in 10.0 mi South 10.4 mph - N/A   Clear